<?xml version="1.0" encoding="UTF-8"?>
<gpx
version="1.1"
creator="Kashmir3D 9.350 - http://www.kashmir3d.com"
xmlns:xsi="http://www.w3.org/2001/XMLSchema-instance"
xmlns="http://www.topografix.com/GPX/1/1"
xmlns:kashmir3d="http://www.kashmir3d.com/namespace/kashmir3d"
xsi:schemaLocation="http://www.topografix.com/GPX/1/1 http://www.topografix.com/GPX/1/1/gpx.xsd
	http://www.kashmir3d.com/namespace/kashmir3d http://www.kashmir3d.com/namespace/kashmir3d.xsd">
<trk>
 <name>BUKOUSAN.KML(武甲山)</name>
 <number>1</number>
 <extensions>
 <kashmir3d:line_color>0000ff</kashmir3d:line_color>
 <kashmir3d:line_size>3</kashmir3d:line_size>
 <kashmir3d:line_style>1</kashmir3d:line_style>
 <kashmir3d:icon>901001</kashmir3d:icon>
 </extensions>
<trkseg>
<trkpt lat="35.941754" lon="139.116162">
 <ele>516.9</ele>
 <time>2020-03-24T14:51:24Z</time>
</trkpt>
<trkpt lat="35.941462" lon="139.115121">
 <ele>525.7</ele>
 <time>2020-03-24T14:51:24Z</time>
</trkpt>
<trkpt lat="35.941402" lon="139.114917">
 <ele>529.3</ele>
 <time>2020-03-24T14:51:24Z</time>
</trkpt>
<trkpt lat="35.941402" lon="139.114724">
 <ele>529.4</ele>
 <time>2020-03-24T14:51:24Z</time>
</trkpt>
<trkpt lat="35.941574" lon="139.114692">
 <ele>521.7</ele>
 <time>2020-03-24T14:51:24Z</time>
</trkpt>
<trkpt lat="35.941634" lon="139.114746">
 <ele>523.3</ele>
 <time>2020-03-24T14:51:24Z</time>
</trkpt>
<trkpt lat="35.941720" lon="139.114778">
 <ele>524.5</ele>
 <time>2020-03-24T14:51:24Z</time>
</trkpt>
<trkpt lat="35.941814" lon="139.114692">
 <ele>529.6</ele>
 <time>2020-03-24T14:51:24Z</time>
</trkpt>
<trkpt lat="35.941814" lon="139.114553">
 <ele>529.5</ele>
 <time>2020-03-24T14:51:25Z</time>
</trkpt>
<trkpt lat="35.941797" lon="139.114478">
 <ele>531.6</ele>
 <time>2020-03-24T14:51:25Z</time>
</trkpt>
<trkpt lat="35.941797" lon="139.114381">
 <ele>530.5</ele>
 <time>2020-03-24T14:51:25Z</time>
</trkpt>
<trkpt lat="35.941797" lon="139.114199">
 <ele>533.1</ele>
 <time>2020-03-24T14:51:25Z</time>
</trkpt>
<trkpt lat="35.941806" lon="139.114070">
 <ele>535.6</ele>
 <time>2020-03-24T14:51:25Z</time>
</trkpt>
<trkpt lat="35.941806" lon="139.113834">
 <ele>537.5</ele>
 <time>2020-03-24T14:51:25Z</time>
</trkpt>
<trkpt lat="35.941831" lon="139.113694">
 <ele>539.2</ele>
 <time>2020-03-24T14:51:25Z</time>
</trkpt>
<trkpt lat="35.941840" lon="139.113555">
 <ele>542.7</ele>
 <time>2020-03-24T14:51:25Z</time>
</trkpt>
<trkpt lat="35.941840" lon="139.113340">
 <ele>548.8</ele>
 <time>2020-03-24T14:51:25Z</time>
</trkpt>
<trkpt lat="35.941797" lon="139.113190">
 <ele>550.5</ele>
 <time>2020-03-24T14:51:26Z</time>
</trkpt>
<trkpt lat="35.941788" lon="139.113051">
 <ele>554.1</ele>
 <time>2020-03-24T14:51:26Z</time>
</trkpt>
<trkpt lat="35.941780" lon="139.112954">
 <ele>556.8</ele>
 <time>2020-03-24T14:51:26Z</time>
</trkpt>
<trkpt lat="35.941763" lon="139.112879">
 <ele>556.8</ele>
 <time>2020-03-24T14:51:26Z</time>
</trkpt>
<trkpt lat="35.941763" lon="139.112654">
 <ele>561.2</ele>
 <time>2020-03-24T14:51:26Z</time>
</trkpt>
<trkpt lat="35.941788" lon="139.112504">
 <ele>562.6</ele>
 <time>2020-03-24T14:51:26Z</time>
</trkpt>
<trkpt lat="35.941806" lon="139.112385">
 <ele>563.8</ele>
 <time>2020-03-24T14:51:26Z</time>
</trkpt>
<trkpt lat="35.941806" lon="139.112235">
 <ele>566.9</ele>
 <time>2020-03-24T14:51:26Z</time>
</trkpt>
<trkpt lat="35.941823" lon="139.112139">
 <ele>569.8</ele>
 <time>2020-03-24T14:51:26Z</time>
</trkpt>
<trkpt lat="35.941831" lon="139.112010">
 <ele>570.5</ele>
 <time>2020-03-24T14:51:26Z</time>
</trkpt>
<trkpt lat="35.941806" lon="139.111838">
 <ele>571.5</ele>
 <time>2020-03-24T14:51:27Z</time>
</trkpt>
<trkpt lat="35.941763" lon="139.111645">
 <ele>571.5</ele>
 <time>2020-03-24T14:51:27Z</time>
</trkpt>
<trkpt lat="35.941728" lon="139.111516">
 <ele>572.3</ele>
 <time>2020-03-24T14:51:27Z</time>
</trkpt>
<trkpt lat="35.941703" lon="139.111388">
 <ele>573</ele>
 <time>2020-03-24T14:51:27Z</time>
</trkpt>
<trkpt lat="35.941668" lon="139.111270">
 <ele>579</ele>
 <time>2020-03-24T14:51:27Z</time>
</trkpt>
<trkpt lat="35.941668" lon="139.111216">
 <ele>579.2</ele>
 <time>2020-03-24T14:51:27Z</time>
</trkpt>
<trkpt lat="35.941668" lon="139.111141">
 <ele>581.2</ele>
 <time>2020-03-24T14:51:27Z</time>
</trkpt>
<trkpt lat="35.941703" lon="139.111034">
 <ele>583.8</ele>
 <time>2020-03-24T14:51:27Z</time>
</trkpt>
<trkpt lat="35.941737" lon="139.110959">
 <ele>586.8</ele>
 <time>2020-03-24T14:51:27Z</time>
</trkpt>
<trkpt lat="35.941797" lon="139.110851">
 <ele>589.9</ele>
 <time>2020-03-24T14:51:27Z</time>
</trkpt>
<trkpt lat="35.941849" lon="139.110787">
 <ele>592.2</ele>
 <time>2020-03-24T14:51:28Z</time>
</trkpt>
<trkpt lat="35.941849" lon="139.110690">
 <ele>592.2</ele>
 <time>2020-03-24T14:51:28Z</time>
</trkpt>
<trkpt lat="35.941874" lon="139.110626">
 <ele>592.5</ele>
 <time>2020-03-24T14:51:28Z</time>
</trkpt>
<trkpt lat="35.941874" lon="139.110519">
 <ele>593</ele>
 <time>2020-03-24T14:51:28Z</time>
</trkpt>
<trkpt lat="35.941866" lon="139.110411">
 <ele>594.6</ele>
 <time>2020-03-24T14:51:28Z</time>
</trkpt>
<trkpt lat="35.941857" lon="139.110358">
 <ele>595.4</ele>
 <time>2020-03-24T14:51:28Z</time>
</trkpt>
<trkpt lat="35.941857" lon="139.110250">
 <ele>596.9</ele>
 <time>2020-03-24T14:51:28Z</time>
</trkpt>
<trkpt lat="35.941900" lon="139.110208">
 <ele>596.3</ele>
 <time>2020-03-24T14:51:28Z</time>
</trkpt>
<trkpt lat="35.941969" lon="139.110186">
 <ele>599.3</ele>
 <time>2020-03-24T14:51:28Z</time>
</trkpt>
<trkpt lat="35.941994" lon="139.110165">
 <ele>601.8</ele>
 <time>2020-03-24T14:51:29Z</time>
</trkpt>
<trkpt lat="35.942063" lon="139.110100">
 <ele>606.3</ele>
 <time>2020-03-24T14:51:29Z</time>
</trkpt>
<trkpt lat="35.942063" lon="139.110014">
 <ele>606</ele>
 <time>2020-03-24T14:51:29Z</time>
</trkpt>
<trkpt lat="35.942089" lon="139.109929">
 <ele>606.5</ele>
 <time>2020-03-24T14:51:29Z</time>
</trkpt>
<trkpt lat="35.942192" lon="139.109650">
 <ele>606.8</ele>
 <time>2020-03-24T14:51:29Z</time>
</trkpt>
<trkpt lat="35.942286" lon="139.109478">
 <ele>610</ele>
 <time>2020-03-24T14:51:29Z</time>
</trkpt>
<trkpt lat="35.942432" lon="139.109199">
 <ele>615.4</ele>
 <time>2020-03-24T14:51:29Z</time>
</trkpt>
<trkpt lat="35.942595" lon="139.108931">
 <ele>622.9</ele>
 <time>2020-03-24T14:51:29Z</time>
</trkpt>
<trkpt lat="35.942707" lon="139.108727">
 <ele>629.6</ele>
 <time>2020-03-24T14:51:29Z</time>
</trkpt>
<trkpt lat="35.942801" lon="139.108502">
 <ele>637.4</ele>
 <time>2020-03-24T14:51:29Z</time>
</trkpt>
<trkpt lat="35.942887" lon="139.108351">
 <ele>639.8</ele>
 <time>2020-03-24T14:51:30Z</time>
</trkpt>
<trkpt lat="35.942956" lon="139.108180">
 <ele>643.2</ele>
 <time>2020-03-24T14:51:30Z</time>
</trkpt>
<trkpt lat="35.943016" lon="139.107997">
 <ele>647.5</ele>
 <time>2020-03-24T14:51:30Z</time>
</trkpt>
<trkpt lat="35.943084" lon="139.107751">
 <ele>651.1</ele>
 <time>2020-03-24T14:51:30Z</time>
</trkpt>
<trkpt lat="35.943093" lon="139.107579">
 <ele>654.9</ele>
 <time>2020-03-24T14:51:30Z</time>
</trkpt>
<trkpt lat="35.943136" lon="139.107429">
 <ele>659.3</ele>
 <time>2020-03-24T14:51:30Z</time>
</trkpt>
<trkpt lat="35.943153" lon="139.107225">
 <ele>664.5</ele>
 <time>2020-03-24T14:51:30Z</time>
</trkpt>
<trkpt lat="35.943153" lon="139.107107">
 <ele>667.3</ele>
 <time>2020-03-24T14:51:30Z</time>
</trkpt>
<trkpt lat="35.943170" lon="139.107010">
 <ele>668.9</ele>
 <time>2020-03-24T14:51:30Z</time>
</trkpt>
<trkpt lat="35.943136" lon="139.106828">
 <ele>671.4</ele>
 <time>2020-03-24T14:51:31Z</time>
</trkpt>
<trkpt lat="35.943102" lon="139.106646">
 <ele>676.9</ele>
 <time>2020-03-24T14:51:31Z</time>
</trkpt>
<trkpt lat="35.943059" lon="139.106420">
 <ele>681.3</ele>
 <time>2020-03-24T14:51:31Z</time>
</trkpt>
<trkpt lat="35.942999" lon="139.106163">
 <ele>687</ele>
 <time>2020-03-24T14:51:31Z</time>
</trkpt>
<trkpt lat="35.942964" lon="139.105895">
 <ele>692.8</ele>
 <time>2020-03-24T14:51:31Z</time>
</trkpt>
<trkpt lat="35.942913" lon="139.105637">
 <ele>698.3</ele>
 <time>2020-03-24T14:51:31Z</time>
</trkpt>
<trkpt lat="35.942878" lon="139.105498">
 <ele>699.8</ele>
 <time>2020-03-24T14:51:31Z</time>
</trkpt>
<trkpt lat="35.942836" lon="139.105283">
 <ele>705.3</ele>
 <time>2020-03-24T14:51:31Z</time>
</trkpt>
<trkpt lat="35.942904" lon="139.105262">
 <ele>710.2</ele>
 <time>2020-03-24T14:51:31Z</time>
</trkpt>
<trkpt lat="35.942990" lon="139.105347">
 <ele>711.3</ele>
 <time>2020-03-24T14:51:31Z</time>
</trkpt>
<trkpt lat="35.943102" lon="139.105390">
 <ele>715.9</ele>
 <time>2020-03-24T14:51:32Z</time>
</trkpt>
<trkpt lat="35.943179" lon="139.105380">
 <ele>716.9</ele>
 <time>2020-03-24T14:51:32Z</time>
</trkpt>
<trkpt lat="35.943256" lon="139.105380">
 <ele>717.2</ele>
 <time>2020-03-24T14:51:32Z</time>
</trkpt>
<trkpt lat="35.943333" lon="139.105358">
 <ele>720.3</ele>
 <time>2020-03-24T14:51:32Z</time>
</trkpt>
<trkpt lat="35.943411" lon="139.105347">
 <ele>720</ele>
 <time>2020-03-24T14:51:32Z</time>
</trkpt>
<trkpt lat="35.943505" lon="139.105337">
 <ele>720.7</ele>
 <time>2020-03-24T14:51:32Z</time>
</trkpt>
<trkpt lat="35.943634" lon="139.105422">
 <ele>726.2</ele>
 <time>2020-03-24T14:51:32Z</time>
</trkpt>
<trkpt lat="35.943702" lon="139.105487">
 <ele>732</ele>
 <time>2020-03-24T14:51:32Z</time>
</trkpt>
<trkpt lat="35.943788" lon="139.105508">
 <ele>734.7</ele>
 <time>2020-03-24T14:51:32Z</time>
</trkpt>
<trkpt lat="35.943840" lon="139.105476">
 <ele>740.3</ele>
 <time>2020-03-24T14:51:33Z</time>
</trkpt>
<trkpt lat="35.943883" lon="139.105390">
 <ele>742.8</ele>
 <time>2020-03-24T14:51:33Z</time>
</trkpt>
<trkpt lat="35.943943" lon="139.105315">
 <ele>746.2</ele>
 <time>2020-03-24T14:51:33Z</time>
</trkpt>
<trkpt lat="35.944037" lon="139.105219">
 <ele>751.1</ele>
 <time>2020-03-24T14:51:33Z</time>
</trkpt>
<trkpt lat="35.944106" lon="139.105154">
 <ele>755</ele>
 <time>2020-03-24T14:51:33Z</time>
</trkpt>
<trkpt lat="35.944157" lon="139.105058">
 <ele>754.2</ele>
 <time>2020-03-24T14:51:33Z</time>
</trkpt>
<trkpt lat="35.944217" lon="139.105004">
 <ele>758.8</ele>
 <time>2020-03-24T14:51:33Z</time>
</trkpt>
<trkpt lat="35.944243" lon="139.104886">
 <ele>757.4</ele>
 <time>2020-03-24T14:51:33Z</time>
</trkpt>
<trkpt lat="35.944209" lon="139.104811">
 <ele>755.3</ele>
 <time>2020-03-24T14:51:33Z</time>
</trkpt>
<trkpt lat="35.944089" lon="139.104811">
 <ele>752.3</ele>
 <time>2020-03-24T14:51:33Z</time>
</trkpt>
<trkpt lat="35.943986" lon="139.104757">
 <ele>761.3</ele>
 <time>2020-03-24T14:51:34Z</time>
</trkpt>
<trkpt lat="35.943943" lon="139.104682">
 <ele>764.4</ele>
 <time>2020-03-24T14:51:34Z</time>
</trkpt>
<trkpt lat="35.943943" lon="139.104607">
 <ele>769.4</ele>
 <time>2020-03-24T14:51:34Z</time>
</trkpt>
<trkpt lat="35.943986" lon="139.104543">
 <ele>773.8</ele>
 <time>2020-03-24T14:51:34Z</time>
</trkpt>
<trkpt lat="35.943969" lon="139.104457">
 <ele>777.4</ele>
 <time>2020-03-24T14:51:34Z</time>
</trkpt>
<trkpt lat="35.943908" lon="139.104317">
 <ele>779.6</ele>
 <time>2020-03-24T14:51:34Z</time>
</trkpt>
<trkpt lat="35.943814" lon="139.104232">
 <ele>780.3</ele>
 <time>2020-03-24T14:51:34Z</time>
</trkpt>
<trkpt lat="35.943728" lon="139.104156">
 <ele>784.3</ele>
 <time>2020-03-24T14:51:34Z</time>
</trkpt>
<trkpt lat="35.943677" lon="139.104049">
 <ele>785</ele>
 <time>2020-03-24T14:51:34Z</time>
</trkpt>
<trkpt lat="35.943711" lon="139.103856">
 <ele>787</ele>
 <time>2020-03-24T14:51:34Z</time>
</trkpt>
<trkpt lat="35.943737" lon="139.103727">
 <ele>789</ele>
 <time>2020-03-24T14:51:35Z</time>
</trkpt>
<trkpt lat="35.943771" lon="139.103663">
 <ele>791.7</ele>
 <time>2020-03-24T14:51:35Z</time>
</trkpt>
<trkpt lat="35.943823" lon="139.103599">
 <ele>793.7</ele>
 <time>2020-03-24T14:51:35Z</time>
</trkpt>
<trkpt lat="35.943883" lon="139.103684">
 <ele>797.7</ele>
 <time>2020-03-24T14:51:35Z</time>
</trkpt>
<trkpt lat="35.943917" lon="139.103749">
 <ele>799.2</ele>
 <time>2020-03-24T14:51:35Z</time>
</trkpt>
<trkpt lat="35.943960" lon="139.103835">
 <ele>801</ele>
 <time>2020-03-24T14:51:35Z</time>
</trkpt>
<trkpt lat="35.944003" lon="139.103878">
 <ele>803</ele>
 <time>2020-03-24T14:51:35Z</time>
</trkpt>
<trkpt lat="35.944097" lon="139.103899">
 <ele>805.8</ele>
 <time>2020-03-24T14:51:35Z</time>
</trkpt>
<trkpt lat="35.944123" lon="139.103878">
 <ele>806.9</ele>
 <time>2020-03-24T14:51:35Z</time>
</trkpt>
<trkpt lat="35.944123" lon="139.103760">
 <ele>812.1</ele>
 <time>2020-03-24T14:51:36Z</time>
</trkpt>
<trkpt lat="35.944140" lon="139.103684">
 <ele>814.7</ele>
 <time>2020-03-24T14:51:36Z</time>
</trkpt>
<trkpt lat="35.944192" lon="139.103641">
 <ele>815.7</ele>
 <time>2020-03-24T14:51:36Z</time>
</trkpt>
<trkpt lat="35.944278" lon="139.103577">
 <ele>819</ele>
 <time>2020-03-24T14:51:36Z</time>
</trkpt>
<trkpt lat="35.944338" lon="139.103523">
 <ele>819.9</ele>
 <time>2020-03-24T14:51:36Z</time>
</trkpt>
<trkpt lat="35.944381" lon="139.103481">
 <ele>821</ele>
 <time>2020-03-24T14:51:36Z</time>
</trkpt>
<trkpt lat="35.944406" lon="139.103395">
 <ele>822.6</ele>
 <time>2020-03-24T14:51:36Z</time>
</trkpt>
<trkpt lat="35.944432" lon="139.103341">
 <ele>825.5</ele>
 <time>2020-03-24T14:51:36Z</time>
</trkpt>
<trkpt lat="35.944492" lon="139.103341">
 <ele>828.6</ele>
 <time>2020-03-24T14:51:36Z</time>
</trkpt>
<trkpt lat="35.944544" lon="139.103309">
 <ele>830.2</ele>
 <time>2020-03-24T14:51:36Z</time>
</trkpt>
<trkpt lat="35.944587" lon="139.103245">
 <ele>833.7</ele>
 <time>2020-03-24T14:51:37Z</time>
</trkpt>
<trkpt lat="35.944638" lon="139.103180">
 <ele>837.5</ele>
 <time>2020-03-24T14:51:37Z</time>
</trkpt>
<trkpt lat="35.944681" lon="139.103223">
 <ele>839</ele>
 <time>2020-03-24T14:51:37Z</time>
</trkpt>
<trkpt lat="35.944715" lon="139.103298">
 <ele>840.8</ele>
 <time>2020-03-24T14:51:37Z</time>
</trkpt>
<trkpt lat="35.944775" lon="139.103448">
 <ele>843.8</ele>
 <time>2020-03-24T14:51:37Z</time>
</trkpt>
<trkpt lat="35.944827" lon="139.103566">
 <ele>844.7</ele>
 <time>2020-03-24T14:51:37Z</time>
</trkpt>
<trkpt lat="35.944870" lon="139.103631">
 <ele>847.6</ele>
 <time>2020-03-24T14:51:37Z</time>
</trkpt>
<trkpt lat="35.944947" lon="139.103684">
 <ele>850.1</ele>
 <time>2020-03-24T14:51:37Z</time>
</trkpt>
<trkpt lat="35.945033" lon="139.103727">
 <ele>852.4</ele>
 <time>2020-03-24T14:51:37Z</time>
</trkpt>
<trkpt lat="35.945110" lon="139.103749">
 <ele>854</ele>
 <time>2020-03-24T14:51:37Z</time>
</trkpt>
<trkpt lat="35.945196" lon="139.103781">
 <ele>856.9</ele>
 <time>2020-03-24T14:51:38Z</time>
</trkpt>
<trkpt lat="35.945273" lon="139.103792">
 <ele>859.3</ele>
 <time>2020-03-24T14:51:38Z</time>
</trkpt>
<trkpt lat="35.945342" lon="139.103792">
 <ele>861.7</ele>
 <time>2020-03-24T14:51:38Z</time>
</trkpt>
<trkpt lat="35.945368" lon="139.103684">
 <ele>867.6</ele>
 <time>2020-03-24T14:51:38Z</time>
</trkpt>
<trkpt lat="35.945393" lon="139.103588">
 <ele>871.4</ele>
 <time>2020-03-24T14:51:38Z</time>
</trkpt>
<trkpt lat="35.945445" lon="139.103534">
 <ele>872.8</ele>
 <time>2020-03-24T14:51:38Z</time>
</trkpt>
<trkpt lat="35.945496" lon="139.103534">
 <ele>874.8</ele>
 <time>2020-03-24T14:51:38Z</time>
</trkpt>
<trkpt lat="35.945582" lon="139.103481">
 <ele>877.5</ele>
 <time>2020-03-24T14:51:38Z</time>
</trkpt>
<trkpt lat="35.945668" lon="139.103459">
 <ele>880.9</ele>
 <time>2020-03-24T14:51:38Z</time>
</trkpt>
<trkpt lat="35.945737" lon="139.103405">
 <ele>882.8</ele>
 <time>2020-03-24T14:51:39Z</time>
</trkpt>
<trkpt lat="35.945848" lon="139.103416">
 <ele>885.7</ele>
 <time>2020-03-24T14:51:39Z</time>
</trkpt>
<trkpt lat="35.945917" lon="139.103459">
 <ele>887.7</ele>
 <time>2020-03-24T14:51:39Z</time>
</trkpt>
<trkpt lat="35.945968" lon="139.103502">
 <ele>889</ele>
 <time>2020-03-24T14:51:39Z</time>
</trkpt>
<trkpt lat="35.946063" lon="139.103545">
 <ele>893.5</ele>
 <time>2020-03-24T14:51:39Z</time>
</trkpt>
<trkpt lat="35.946131" lon="139.103545">
 <ele>896.6</ele>
 <time>2020-03-24T14:51:39Z</time>
</trkpt>
<trkpt lat="35.946174" lon="139.103631">
 <ele>899.4</ele>
 <time>2020-03-24T14:51:39Z</time>
</trkpt>
<trkpt lat="35.946200" lon="139.103717">
 <ele>901.4</ele>
 <time>2020-03-24T14:51:39Z</time>
</trkpt>
<trkpt lat="35.946234" lon="139.103792">
 <ele>903.2</ele>
 <time>2020-03-24T14:51:39Z</time>
</trkpt>
<trkpt lat="35.946303" lon="139.103856">
 <ele>906.7</ele>
 <time>2020-03-24T14:51:39Z</time>
</trkpt>
<trkpt lat="35.946363" lon="139.103931">
 <ele>909</ele>
 <time>2020-03-24T14:51:40Z</time>
</trkpt>
<trkpt lat="35.946458" lon="139.103974">
 <ele>911.3</ele>
 <time>2020-03-24T14:51:40Z</time>
</trkpt>
<trkpt lat="35.946535" lon="139.103953">
 <ele>913.5</ele>
 <time>2020-03-24T14:51:40Z</time>
</trkpt>
<trkpt lat="35.946638" lon="139.103920">
 <ele>917.5</ele>
 <time>2020-03-24T14:51:40Z</time>
</trkpt>
<trkpt lat="35.946732" lon="139.103845">
 <ele>923.2</ele>
 <time>2020-03-24T14:51:40Z</time>
</trkpt>
<trkpt lat="35.946810" lon="139.103792">
 <ele>926.4</ele>
 <time>2020-03-24T14:51:40Z</time>
</trkpt>
<trkpt lat="35.946895" lon="139.103760">
 <ele>930.7</ele>
 <time>2020-03-24T14:51:40Z</time>
</trkpt>
<trkpt lat="35.947093" lon="139.103856">
 <ele>938.2</ele>
 <time>2020-03-24T14:51:40Z</time>
</trkpt>
<trkpt lat="35.947161" lon="139.103942">
 <ele>941.1</ele>
 <time>2020-03-24T14:51:40Z</time>
</trkpt>
<trkpt lat="35.947179" lon="139.104028">
 <ele>942.9</ele>
 <time>2020-03-24T14:51:41Z</time>
</trkpt>
<trkpt lat="35.947170" lon="139.104081">
 <ele>944.8</ele>
 <time>2020-03-24T14:51:41Z</time>
</trkpt>
<trkpt lat="35.947153" lon="139.104189">
 <ele>945.6</ele>
 <time>2020-03-24T14:51:41Z</time>
</trkpt>
<trkpt lat="35.947136" lon="139.104274">
 <ele>947.5</ele>
 <time>2020-03-24T14:51:41Z</time>
</trkpt>
<trkpt lat="35.947213" lon="139.104382">
 <ele>953.1</ele>
 <time>2020-03-24T14:51:41Z</time>
</trkpt>
<trkpt lat="35.947264" lon="139.104521">
 <ele>956.2</ele>
 <time>2020-03-24T14:51:41Z</time>
</trkpt>
<trkpt lat="35.947264" lon="139.104650">
 <ele>956.9</ele>
 <time>2020-03-24T14:51:41Z</time>
</trkpt>
<trkpt lat="35.947299" lon="139.104714">
 <ele>959.1</ele>
 <time>2020-03-24T14:51:41Z</time>
</trkpt>
<trkpt lat="35.947316" lon="139.104865">
 <ele>963.4</ele>
 <time>2020-03-24T14:51:41Z</time>
</trkpt>
<trkpt lat="35.947316" lon="139.104940">
 <ele>966</ele>
 <time>2020-03-24T14:51:41Z</time>
</trkpt>
<trkpt lat="35.947316" lon="139.105090">
 <ele>972.3</ele>
 <time>2020-03-24T14:51:42Z</time>
</trkpt>
<trkpt lat="35.947247" lon="139.105262">
 <ele>977.4</ele>
 <time>2020-03-24T14:51:42Z</time>
</trkpt>
<trkpt lat="35.947222" lon="139.105358">
 <ele>978.5</ele>
 <time>2020-03-24T14:51:42Z</time>
</trkpt>
<trkpt lat="35.947213" lon="139.105412">
 <ele>980.1</ele>
 <time>2020-03-24T14:51:42Z</time>
</trkpt>
<trkpt lat="35.947179" lon="139.105508">
 <ele>979.5</ele>
 <time>2020-03-24T14:51:42Z</time>
</trkpt>
<trkpt lat="35.947213" lon="139.105562">
 <ele>980.9</ele>
 <time>2020-03-24T14:51:42Z</time>
</trkpt>
<trkpt lat="35.947256" lon="139.105626">
 <ele>981.4</ele>
 <time>2020-03-24T14:51:42Z</time>
</trkpt>
<trkpt lat="35.947333" lon="139.105583">
 <ele>983.7</ele>
 <time>2020-03-24T14:51:42Z</time>
</trkpt>
<trkpt lat="35.947393" lon="139.105530">
 <ele>986.8</ele>
 <time>2020-03-24T14:51:42Z</time>
</trkpt>
<trkpt lat="35.947419" lon="139.105422">
 <ele>988.3</ele>
 <time>2020-03-24T14:51:43Z</time>
</trkpt>
<trkpt lat="35.947513" lon="139.105433">
 <ele>993.2</ele>
 <time>2020-03-24T14:51:43Z</time>
</trkpt>
<trkpt lat="35.947565" lon="139.105487">
 <ele>993.7</ele>
 <time>2020-03-24T14:51:43Z</time>
</trkpt>
<trkpt lat="35.947651" lon="139.105412">
 <ele>996</ele>
 <time>2020-03-24T14:51:43Z</time>
</trkpt>
<trkpt lat="35.947719" lon="139.105326">
 <ele>997.6</ele>
 <time>2020-03-24T14:51:43Z</time>
</trkpt>
<trkpt lat="35.947848" lon="139.105229">
 <ele>1000</ele>
 <time>2020-03-24T14:51:43Z</time>
</trkpt>
<trkpt lat="35.947943" lon="139.105133">
 <ele>1002.8</ele>
 <time>2020-03-24T14:51:43Z</time>
</trkpt>
<trkpt lat="35.948054" lon="139.105047">
 <ele>1006.1</ele>
 <time>2020-03-24T14:51:43Z</time>
</trkpt>
<trkpt lat="35.948131" lon="139.104961">
 <ele>1008.8</ele>
 <time>2020-03-24T14:51:43Z</time>
</trkpt>
<trkpt lat="35.948200" lon="139.104832">
 <ele>1012.6</ele>
 <time>2020-03-24T14:51:43Z</time>
</trkpt>
<trkpt lat="35.948277" lon="139.104736">
 <ele>1015.9</ele>
 <time>2020-03-24T14:51:44Z</time>
</trkpt>
<trkpt lat="35.948354" lon="139.104682">
 <ele>1018.2</ele>
 <time>2020-03-24T14:51:44Z</time>
</trkpt>
<trkpt lat="35.948449" lon="139.104650">
 <ele>1020.1</ele>
 <time>2020-03-24T14:51:44Z</time>
</trkpt>
<trkpt lat="35.948543" lon="139.104618">
 <ele>1021.7</ele>
 <time>2020-03-24T14:51:44Z</time>
</trkpt>
<trkpt lat="35.948612" lon="139.104511">
 <ele>1023.9</ele>
 <time>2020-03-24T14:51:44Z</time>
</trkpt>
<trkpt lat="35.948629" lon="139.104360">
 <ele>1028</ele>
 <time>2020-03-24T14:51:44Z</time>
</trkpt>
<trkpt lat="35.948603" lon="139.104264">
 <ele>1028.4</ele>
 <time>2020-03-24T14:51:44Z</time>
</trkpt>
<trkpt lat="35.948612" lon="139.104189">
 <ele>1030.3</ele>
 <time>2020-03-24T14:51:44Z</time>
</trkpt>
<trkpt lat="35.948663" lon="139.104146">
 <ele>1034.1</ele>
 <time>2020-03-24T14:51:44Z</time>
</trkpt>
<trkpt lat="35.948724" lon="139.104242">
 <ele>1033.8</ele>
 <time>2020-03-24T14:51:44Z</time>
</trkpt>
<trkpt lat="35.948852" lon="139.104285">
 <ele>1038.6</ele>
 <time>2020-03-24T14:51:45Z</time>
</trkpt>
<trkpt lat="35.948955" lon="139.104285">
 <ele>1042.2</ele>
 <time>2020-03-24T14:51:45Z</time>
</trkpt>
<trkpt lat="35.949015" lon="139.104253">
 <ele>1043.7</ele>
 <time>2020-03-24T14:51:45Z</time>
</trkpt>
<trkpt lat="35.948998" lon="139.104146">
 <ele>1046.4</ele>
 <time>2020-03-24T14:51:45Z</time>
</trkpt>
<trkpt lat="35.948981" lon="139.104071">
 <ele>1048.5</ele>
 <time>2020-03-24T14:51:45Z</time>
</trkpt>
<trkpt lat="35.948981" lon="139.104006">
 <ele>1049.5</ele>
 <time>2020-03-24T14:51:45Z</time>
</trkpt>
<trkpt lat="35.949041" lon="139.103931">
 <ele>1055.2</ele>
 <time>2020-03-24T14:51:45Z</time>
</trkpt>
<trkpt lat="35.949041" lon="139.103824">
 <ele>1057.8</ele>
 <time>2020-03-24T14:51:45Z</time>
</trkpt>
<trkpt lat="35.949093" lon="139.103781">
 <ele>1060</ele>
 <time>2020-03-24T14:51:45Z</time>
</trkpt>
<trkpt lat="35.949178" lon="139.103813">
 <ele>1062.8</ele>
 <time>2020-03-24T14:51:46Z</time>
</trkpt>
<trkpt lat="35.949299" lon="139.103813">
 <ele>1064.4</ele>
 <time>2020-03-24T14:51:46Z</time>
</trkpt>
<trkpt lat="35.949384" lon="139.103781">
 <ele>1065</ele>
 <time>2020-03-24T14:51:46Z</time>
</trkpt>
<trkpt lat="35.949445" lon="139.103738">
 <ele>1066.8</ele>
 <time>2020-03-24T14:51:46Z</time>
</trkpt>
<trkpt lat="35.949462" lon="139.103631">
 <ele>1070.6</ele>
 <time>2020-03-24T14:51:46Z</time>
</trkpt>
<trkpt lat="35.949479" lon="139.103502">
 <ele>1072.8</ele>
 <time>2020-03-24T14:51:46Z</time>
</trkpt>
<trkpt lat="35.949479" lon="139.103395">
 <ele>1074.8</ele>
 <time>2020-03-24T14:51:46Z</time>
</trkpt>
<trkpt lat="35.949479" lon="139.103330">
 <ele>1076.6</ele>
 <time>2020-03-24T14:51:46Z</time>
</trkpt>
<trkpt lat="35.949539" lon="139.103309">
 <ele>1078.4</ele>
 <time>2020-03-24T14:51:46Z</time>
</trkpt>
<trkpt lat="35.949625" lon="139.103363">
 <ele>1079.1</ele>
 <time>2020-03-24T14:51:46Z</time>
</trkpt>
<trkpt lat="35.949693" lon="139.103384">
 <ele>1080.8</ele>
 <time>2020-03-24T14:51:47Z</time>
</trkpt>
<trkpt lat="35.949719" lon="139.103309">
 <ele>1082.3</ele>
 <time>2020-03-24T14:51:47Z</time>
</trkpt>
<trkpt lat="35.949754" lon="139.103202">
 <ele>1085.4</ele>
 <time>2020-03-24T14:51:47Z</time>
</trkpt>
<trkpt lat="35.949754" lon="139.103073">
 <ele>1087.7</ele>
 <time>2020-03-24T14:51:47Z</time>
</trkpt>
<trkpt lat="35.949745" lon="139.102976">
 <ele>1089.5</ele>
 <time>2020-03-24T14:51:47Z</time>
</trkpt>
<trkpt lat="35.949788" lon="139.102933">
 <ele>1091.1</ele>
 <time>2020-03-24T14:51:47Z</time>
</trkpt>
<trkpt lat="35.949839" lon="139.102923">
 <ele>1093.4</ele>
 <time>2020-03-24T14:51:47Z</time>
</trkpt>
<trkpt lat="35.949788" lon="139.102783">
 <ele>1096.6</ele>
 <time>2020-03-24T14:51:47Z</time>
</trkpt>
<trkpt lat="35.949762" lon="139.102665">
 <ele>1098.3</ele>
 <time>2020-03-24T14:51:47Z</time>
</trkpt>
<trkpt lat="35.949779" lon="139.102558">
 <ele>1104.9</ele>
 <time>2020-03-24T14:51:47Z</time>
</trkpt>
<trkpt lat="35.949745" lon="139.102440">
 <ele>1108.6</ele>
 <time>2020-03-24T14:51:48Z</time>
</trkpt>
<trkpt lat="35.949719" lon="139.102365">
 <ele>1109.5</ele>
 <time>2020-03-24T14:51:48Z</time>
</trkpt>
<trkpt lat="35.949728" lon="139.102247">
 <ele>1112.1</ele>
 <time>2020-03-24T14:51:48Z</time>
</trkpt>
<trkpt lat="35.949745" lon="139.102150">
 <ele>1114.2</ele>
 <time>2020-03-24T14:51:48Z</time>
</trkpt>
<trkpt lat="35.949771" lon="139.101989">
 <ele>1119.2</ele>
 <time>2020-03-24T14:51:48Z</time>
</trkpt>
<trkpt lat="35.949796" lon="139.101828">
 <ele>1123.1</ele>
 <time>2020-03-24T14:51:48Z</time>
</trkpt>
<trkpt lat="35.949839" lon="139.101732">
 <ele>1126.6</ele>
 <time>2020-03-24T14:51:48Z</time>
</trkpt>
<trkpt lat="35.949891" lon="139.101603">
 <ele>1128.1</ele>
 <time>2020-03-24T14:51:48Z</time>
</trkpt>
<trkpt lat="35.950002" lon="139.101496">
 <ele>1131.6</ele>
 <time>2020-03-24T14:51:48Z</time>
</trkpt>
<trkpt lat="35.950105" lon="139.101421">
 <ele>1134.3</ele>
 <time>2020-03-24T14:51:49Z</time>
</trkpt>
<trkpt lat="35.950200" lon="139.101421">
 <ele>1137.2</ele>
 <time>2020-03-24T14:51:49Z</time>
</trkpt>
<trkpt lat="35.950286" lon="139.101453">
 <ele>1139.5</ele>
 <time>2020-03-24T14:51:49Z</time>
</trkpt>
<trkpt lat="35.950354" lon="139.101453">
 <ele>1141.6</ele>
 <time>2020-03-24T14:51:49Z</time>
</trkpt>
<trkpt lat="35.950389" lon="139.101399">
 <ele>1143.3</ele>
 <time>2020-03-24T14:51:49Z</time>
</trkpt>
<trkpt lat="35.950389" lon="139.101292">
 <ele>1144.2</ele>
 <time>2020-03-24T14:51:49Z</time>
</trkpt>
<trkpt lat="35.950466" lon="139.101292">
 <ele>1149.2</ele>
 <time>2020-03-24T14:51:49Z</time>
</trkpt>
<trkpt lat="35.950517" lon="139.101346">
 <ele>1150.4</ele>
 <time>2020-03-24T14:51:49Z</time>
</trkpt>
<trkpt lat="35.950595" lon="139.101474">
 <ele>1152.3</ele>
 <time>2020-03-24T14:51:49Z</time>
</trkpt>
<trkpt lat="35.950655" lon="139.101474">
 <ele>1155.1</ele>
 <time>2020-03-24T14:51:49Z</time>
</trkpt>
<trkpt lat="35.950706" lon="139.101431">
 <ele>1157.2</ele>
 <time>2020-03-24T14:51:50Z</time>
</trkpt>
<trkpt lat="35.950749" lon="139.101356">
 <ele>1159</ele>
 <time>2020-03-24T14:51:50Z</time>
</trkpt>
<trkpt lat="35.950766" lon="139.101260">
 <ele>1160.4</ele>
 <time>2020-03-24T14:51:50Z</time>
</trkpt>
<trkpt lat="35.950741" lon="139.101152">
 <ele>1162.8</ele>
 <time>2020-03-24T14:51:50Z</time>
</trkpt>
<trkpt lat="35.950723" lon="139.101056">
 <ele>1163.6</ele>
 <time>2020-03-24T14:51:50Z</time>
</trkpt>
<trkpt lat="35.950723" lon="139.100981">
 <ele>1165.6</ele>
 <time>2020-03-24T14:51:50Z</time>
</trkpt>
<trkpt lat="35.950715" lon="139.100820">
 <ele>1169.3</ele>
 <time>2020-03-24T14:51:50Z</time>
</trkpt>
<trkpt lat="35.950715" lon="139.100755">
 <ele>1172.3</ele>
 <time>2020-03-24T14:51:50Z</time>
</trkpt>
<trkpt lat="35.950792" lon="139.100680">
 <ele>1176.4</ele>
 <time>2020-03-24T14:51:50Z</time>
</trkpt>
<trkpt lat="35.950861" lon="139.100627">
 <ele>1178.9</ele>
 <time>2020-03-24T14:51:50Z</time>
</trkpt>
<trkpt lat="35.950895" lon="139.100573">
 <ele>1180.6</ele>
 <time>2020-03-24T14:51:51Z</time>
</trkpt>
<trkpt lat="35.950852" lon="139.100466">
 <ele>1184.7</ele>
 <time>2020-03-24T14:51:51Z</time>
</trkpt>
<trkpt lat="35.950809" lon="139.100316">
 <ele>1188.4</ele>
 <time>2020-03-24T14:51:51Z</time>
</trkpt>
<trkpt lat="35.950775" lon="139.100240">
 <ele>1190.6</ele>
 <time>2020-03-24T14:51:51Z</time>
</trkpt>
<trkpt lat="35.950749" lon="139.100101">
 <ele>1193.9</ele>
 <time>2020-03-24T14:51:51Z</time>
</trkpt>
<trkpt lat="35.950732" lon="139.099854">
 <ele>1198.4</ele>
 <time>2020-03-24T14:51:51Z</time>
</trkpt>
<trkpt lat="35.950749" lon="139.099715">
 <ele>1201</ele>
 <time>2020-03-24T14:51:51Z</time>
</trkpt>
<trkpt lat="35.950758" lon="139.099607">
 <ele>1203.9</ele>
 <time>2020-03-24T14:51:51Z</time>
</trkpt>
<trkpt lat="35.950706" lon="139.099479">
 <ele>1208</ele>
 <time>2020-03-24T14:51:51Z</time>
</trkpt>
<trkpt lat="35.950603" lon="139.099404">
 <ele>1210</ele>
 <time>2020-03-24T14:51:52Z</time>
</trkpt>
<trkpt lat="35.950569" lon="139.099339">
 <ele>1213</ele>
 <time>2020-03-24T14:51:52Z</time>
</trkpt>
<trkpt lat="35.950586" lon="139.099275">
 <ele>1214.7</ele>
 <time>2020-03-24T14:51:52Z</time>
</trkpt>
<trkpt lat="35.950698" lon="139.099232">
 <ele>1217</ele>
 <time>2020-03-24T14:51:52Z</time>
</trkpt>
<trkpt lat="35.950809" lon="139.099178">
 <ele>1223.3</ele>
 <time>2020-03-24T14:51:52Z</time>
</trkpt>
<trkpt lat="35.950904" lon="139.099221">
 <ele>1223.7</ele>
 <time>2020-03-24T14:51:52Z</time>
</trkpt>
<trkpt lat="35.950998" lon="139.099264">
 <ele>1227.6</ele>
 <time>2020-03-24T14:51:52Z</time>
</trkpt>
<trkpt lat="35.951058" lon="139.099296">
 <ele>1230.2</ele>
 <time>2020-03-24T14:51:52Z</time>
</trkpt>
<trkpt lat="35.951101" lon="139.099286">
 <ele>1232.3</ele>
 <time>2020-03-24T14:51:52Z</time>
</trkpt>
<trkpt lat="35.951050" lon="139.099135">
 <ele>1235.8</ele>
 <time>2020-03-24T14:51:52Z</time>
</trkpt>
<trkpt lat="35.951007" lon="139.099060">
 <ele>1236.5</ele>
 <time>2020-03-24T14:51:53Z</time>
</trkpt>
<trkpt lat="35.950989" lon="139.098985">
 <ele>1241.3</ele>
 <time>2020-03-24T14:51:53Z</time>
</trkpt>
<trkpt lat="35.951101" lon="139.099060">
 <ele>1241.4</ele>
 <time>2020-03-24T14:51:53Z</time>
</trkpt>
<trkpt lat="35.951170" lon="139.099071">
 <ele>1243.6</ele>
 <time>2020-03-24T14:51:53Z</time>
</trkpt>
<trkpt lat="35.951221" lon="139.099071">
 <ele>1244.3</ele>
 <time>2020-03-24T14:51:53Z</time>
</trkpt>
<trkpt lat="35.951290" lon="139.099017">
 <ele>1248</ele>
 <time>2020-03-24T14:51:53Z</time>
</trkpt>
<trkpt lat="35.951187" lon="139.098910">
 <ele>1250.4</ele>
 <time>2020-03-24T14:51:53Z</time>
</trkpt>
<trkpt lat="35.951075" lon="139.098760">
 <ele>1254.8</ele>
 <time>2020-03-24T14:51:53Z</time>
</trkpt>
<trkpt lat="35.951032" lon="139.098663">
 <ele>1259.2</ele>
 <time>2020-03-24T14:51:53Z</time>
</trkpt>
<trkpt lat="35.950955" lon="139.098567">
 <ele>1261.2</ele>
 <time>2020-03-24T14:51:53Z</time>
</trkpt>
<trkpt lat="35.950878" lon="139.098513">
 <ele>1260.7</ele>
 <time>2020-03-24T14:51:54Z</time>
</trkpt>
<trkpt lat="35.950792" lon="139.098374">
 <ele>1264.4</ele>
 <time>2020-03-24T14:51:54Z</time>
</trkpt>
<trkpt lat="35.950758" lon="139.098256">
 <ele>1267.5</ele>
 <time>2020-03-24T14:51:54Z</time>
</trkpt>
<trkpt lat="35.950715" lon="139.098127">
 <ele>1269.7</ele>
 <time>2020-03-24T14:51:54Z</time>
</trkpt>
<trkpt lat="35.950706" lon="139.097977">
 <ele>1274.5</ele>
 <time>2020-03-24T14:51:54Z</time>
</trkpt>
<trkpt lat="35.950655" lon="139.097826">
 <ele>1274.8</ele>
 <time>2020-03-24T14:51:54Z</time>
</trkpt>
<trkpt lat="35.950706" lon="139.097805">
 <ele>1276</ele>
 <time>2020-03-24T14:51:54Z</time>
</trkpt>
<trkpt lat="35.950766" lon="139.097784">
 <ele>1276.3</ele>
 <time>2020-03-24T14:51:54Z</time>
</trkpt>
<trkpt lat="35.950861" lon="139.097784">
 <ele>1278.3</ele>
 <time>2020-03-24T14:51:54Z</time>
</trkpt>
<trkpt lat="35.951015" lon="139.097794">
 <ele>1282.2</ele>
 <time>2020-03-24T14:51:55Z</time>
</trkpt>
<trkpt lat="35.951110" lon="139.097794">
 <ele>1284.4</ele>
 <time>2020-03-24T14:51:55Z</time>
</trkpt>
<trkpt lat="35.951213" lon="139.097880">
 <ele>1284.8</ele>
 <time>2020-03-24T14:51:55Z</time>
</trkpt>
<trkpt lat="35.951359" lon="139.097955">
 <ele>1285.9</ele>
 <time>2020-03-24T14:51:55Z</time>
</trkpt>
<trkpt lat="35.951504" lon="139.098052">
 <ele>1291.2</ele>
 <time>2020-03-24T14:51:55Z</time>
</trkpt>
<trkpt lat="35.951600" lon="139.098072">
 <ele>1294.5</ele>
 <time>2020-03-24T14:51:55Z</time>
</trkpt>
<trkpt lat="35.951504" lon="139.098052">
 <ele>1291.2</ele>
 <time>2020-03-24T14:51:55Z</time>
</trkpt>
<trkpt lat="35.951359" lon="139.097955">
 <ele>1285.9</ele>
 <time>2020-03-24T14:51:55Z</time>
</trkpt>
<trkpt lat="35.951213" lon="139.097880">
 <ele>1284.8</ele>
 <time>2020-03-24T14:51:55Z</time>
</trkpt>
<trkpt lat="35.951110" lon="139.097794">
 <ele>1284.4</ele>
 <time>2020-03-24T14:51:56Z</time>
</trkpt>
<trkpt lat="35.951015" lon="139.097794">
 <ele>1282.2</ele>
 <time>2020-03-24T14:51:56Z</time>
</trkpt>
<trkpt lat="35.950861" lon="139.097784">
 <ele>1278.3</ele>
 <time>2020-03-24T14:51:56Z</time>
</trkpt>
<trkpt lat="35.950766" lon="139.097784">
 <ele>1276.3</ele>
 <time>2020-03-24T14:51:56Z</time>
</trkpt>
<trkpt lat="35.950706" lon="139.097805">
 <ele>1276</ele>
 <time>2020-03-24T14:51:56Z</time>
</trkpt>
<trkpt lat="35.950655" lon="139.097826">
 <ele>1274.8</ele>
 <time>2020-03-24T14:51:56Z</time>
</trkpt>
<trkpt lat="35.950706" lon="139.097977">
 <ele>1274.5</ele>
 <time>2020-03-24T14:51:56Z</time>
</trkpt>
<trkpt lat="35.950715" lon="139.098127">
 <ele>1269.7</ele>
 <time>2020-03-24T14:51:56Z</time>
</trkpt>
<trkpt lat="35.950758" lon="139.098256">
 <ele>1267.5</ele>
 <time>2020-03-24T14:51:56Z</time>
</trkpt>
<trkpt lat="35.950792" lon="139.098374">
 <ele>1264.4</ele>
 <time>2020-03-24T14:51:56Z</time>
</trkpt>
<trkpt lat="35.950878" lon="139.098513">
 <ele>1260.7</ele>
 <time>2020-03-24T14:51:57Z</time>
</trkpt>
<trkpt lat="35.950955" lon="139.098567">
 <ele>1261.2</ele>
 <time>2020-03-24T14:51:57Z</time>
</trkpt>
<trkpt lat="35.951032" lon="139.098663">
 <ele>1259.2</ele>
 <time>2020-03-24T14:51:57Z</time>
</trkpt>
<trkpt lat="35.951075" lon="139.098760">
 <ele>1254.8</ele>
 <time>2020-03-24T14:51:57Z</time>
</trkpt>
<trkpt lat="35.951187" lon="139.098910">
 <ele>1250.4</ele>
 <time>2020-03-24T14:51:57Z</time>
</trkpt>
<trkpt lat="35.951290" lon="139.099017">
 <ele>1248</ele>
 <time>2020-03-24T14:51:57Z</time>
</trkpt>
<trkpt lat="35.951221" lon="139.099071">
 <ele>1244.3</ele>
 <time>2020-03-24T14:51:57Z</time>
</trkpt>
<trkpt lat="35.951170" lon="139.099071">
 <ele>1243.6</ele>
 <time>2020-03-24T14:51:57Z</time>
</trkpt>
<trkpt lat="35.951101" lon="139.099060">
 <ele>1241.4</ele>
 <time>2020-03-24T14:51:57Z</time>
</trkpt>
<trkpt lat="35.950989" lon="139.098985">
 <ele>1241.3</ele>
 <time>2020-03-24T14:51:57Z</time>
</trkpt>
<trkpt lat="35.951007" lon="139.099060">
 <ele>1236.5</ele>
 <time>2020-03-24T14:51:58Z</time>
</trkpt>
<trkpt lat="35.951050" lon="139.099135">
 <ele>1235.8</ele>
 <time>2020-03-24T14:51:58Z</time>
</trkpt>
<trkpt lat="35.951101" lon="139.099286">
 <ele>1232.3</ele>
 <time>2020-03-24T14:51:58Z</time>
</trkpt>
<trkpt lat="35.951058" lon="139.099296">
 <ele>1230.2</ele>
 <time>2020-03-24T14:51:58Z</time>
</trkpt>
<trkpt lat="35.950998" lon="139.099264">
 <ele>1227.6</ele>
 <time>2020-03-24T14:51:58Z</time>
</trkpt>
<trkpt lat="35.950904" lon="139.099221">
 <ele>1223.7</ele>
 <time>2020-03-24T14:51:58Z</time>
</trkpt>
<trkpt lat="35.950809" lon="139.099178">
 <ele>1223.3</ele>
 <time>2020-03-24T14:51:58Z</time>
</trkpt>
<trkpt lat="35.950698" lon="139.099232">
 <ele>1217</ele>
 <time>2020-03-24T14:51:58Z</time>
</trkpt>
<trkpt lat="35.950586" lon="139.099275">
 <ele>1214.7</ele>
 <time>2020-03-24T14:51:58Z</time>
</trkpt>
<trkpt lat="35.950569" lon="139.099339">
 <ele>1213</ele>
 <time>2020-03-24T14:51:59Z</time>
</trkpt>
<trkpt lat="35.950603" lon="139.099404">
 <ele>1210</ele>
 <time>2020-03-24T14:51:59Z</time>
</trkpt>
<trkpt lat="35.950706" lon="139.099479">
 <ele>1208</ele>
 <time>2020-03-24T14:51:59Z</time>
</trkpt>
<trkpt lat="35.950758" lon="139.099607">
 <ele>1203.9</ele>
 <time>2020-03-24T14:51:59Z</time>
</trkpt>
<trkpt lat="35.950749" lon="139.099715">
 <ele>1201</ele>
 <time>2020-03-24T14:51:59Z</time>
</trkpt>
<trkpt lat="35.950732" lon="139.099854">
 <ele>1198.4</ele>
 <time>2020-03-24T14:51:59Z</time>
</trkpt>
<trkpt lat="35.950749" lon="139.100101">
 <ele>1193.9</ele>
 <time>2020-03-24T14:51:59Z</time>
</trkpt>
<trkpt lat="35.950775" lon="139.100240">
 <ele>1190.6</ele>
 <time>2020-03-24T14:51:59Z</time>
</trkpt>
<trkpt lat="35.950809" lon="139.100316">
 <ele>1188.4</ele>
 <time>2020-03-24T14:51:59Z</time>
</trkpt>
<trkpt lat="35.950852" lon="139.100466">
 <ele>1184.7</ele>
 <time>2020-03-24T14:51:59Z</time>
</trkpt>
<trkpt lat="35.950895" lon="139.100573">
 <ele>1180.6</ele>
 <time>2020-03-24T14:52:00Z</time>
</trkpt>
<trkpt lat="35.950861" lon="139.100627">
 <ele>1178.9</ele>
 <time>2020-03-24T14:52:00Z</time>
</trkpt>
<trkpt lat="35.950792" lon="139.100680">
 <ele>1176.4</ele>
 <time>2020-03-24T14:52:00Z</time>
</trkpt>
<trkpt lat="35.950715" lon="139.100755">
 <ele>1172.3</ele>
 <time>2020-03-24T14:52:00Z</time>
</trkpt>
<trkpt lat="35.950715" lon="139.100820">
 <ele>1169.3</ele>
 <time>2020-03-24T14:52:00Z</time>
</trkpt>
<trkpt lat="35.950723" lon="139.100981">
 <ele>1165.6</ele>
 <time>2020-03-24T14:52:00Z</time>
</trkpt>
<trkpt lat="35.950723" lon="139.101056">
 <ele>1163.6</ele>
 <time>2020-03-24T14:52:00Z</time>
</trkpt>
<trkpt lat="35.950741" lon="139.101152">
 <ele>1162.8</ele>
 <time>2020-03-24T14:52:00Z</time>
</trkpt>
<trkpt lat="35.950766" lon="139.101260">
 <ele>1160.4</ele>
 <time>2020-03-24T14:52:00Z</time>
</trkpt>
<trkpt lat="35.950749" lon="139.101356">
 <ele>1159</ele>
 <time>2020-03-24T14:52:00Z</time>
</trkpt>
<trkpt lat="35.950706" lon="139.101431">
 <ele>1157.2</ele>
 <time>2020-03-24T14:52:01Z</time>
</trkpt>
<trkpt lat="35.950655" lon="139.101474">
 <ele>1155.1</ele>
 <time>2020-03-24T14:52:01Z</time>
</trkpt>
<trkpt lat="35.950595" lon="139.101474">
 <ele>1152.3</ele>
 <time>2020-03-24T14:52:01Z</time>
</trkpt>
<trkpt lat="35.950517" lon="139.101346">
 <ele>1150.4</ele>
 <time>2020-03-24T14:52:01Z</time>
</trkpt>
<trkpt lat="35.950466" lon="139.101292">
 <ele>1149.2</ele>
 <time>2020-03-24T14:52:01Z</time>
</trkpt>
<trkpt lat="35.950389" lon="139.101292">
 <ele>1144.2</ele>
 <time>2020-03-24T14:52:01Z</time>
</trkpt>
<trkpt lat="35.950389" lon="139.101399">
 <ele>1143.3</ele>
 <time>2020-03-24T14:52:01Z</time>
</trkpt>
<trkpt lat="35.950354" lon="139.101453">
 <ele>1141.6</ele>
 <time>2020-03-24T14:52:01Z</time>
</trkpt>
<trkpt lat="35.950286" lon="139.101453">
 <ele>1139.5</ele>
 <time>2020-03-24T14:52:01Z</time>
</trkpt>
<trkpt lat="35.950200" lon="139.101421">
 <ele>1137.2</ele>
 <time>2020-03-24T14:52:02Z</time>
</trkpt>
<trkpt lat="35.950105" lon="139.101421">
 <ele>1134.3</ele>
 <time>2020-03-24T14:52:02Z</time>
</trkpt>
<trkpt lat="35.950002" lon="139.101496">
 <ele>1131.6</ele>
 <time>2020-03-24T14:52:02Z</time>
</trkpt>
<trkpt lat="35.949891" lon="139.101603">
 <ele>1128.1</ele>
 <time>2020-03-24T14:52:02Z</time>
</trkpt>
<trkpt lat="35.949839" lon="139.101732">
 <ele>1126.6</ele>
 <time>2020-03-24T14:52:02Z</time>
</trkpt>
<trkpt lat="35.949796" lon="139.101828">
 <ele>1123.1</ele>
 <time>2020-03-24T14:52:02Z</time>
</trkpt>
<trkpt lat="35.949771" lon="139.101989">
 <ele>1119.2</ele>
 <time>2020-03-24T14:52:02Z</time>
</trkpt>
<trkpt lat="35.949745" lon="139.102150">
 <ele>1114.2</ele>
 <time>2020-03-24T14:52:02Z</time>
</trkpt>
<trkpt lat="35.949728" lon="139.102247">
 <ele>1112.1</ele>
 <time>2020-03-24T14:52:02Z</time>
</trkpt>
<trkpt lat="35.949719" lon="139.102365">
 <ele>1109.5</ele>
 <time>2020-03-24T14:52:02Z</time>
</trkpt>
<trkpt lat="35.949745" lon="139.102440">
 <ele>1108.6</ele>
 <time>2020-03-24T14:52:03Z</time>
</trkpt>
<trkpt lat="35.949779" lon="139.102558">
 <ele>1104.9</ele>
 <time>2020-03-24T14:52:03Z</time>
</trkpt>
<trkpt lat="35.949762" lon="139.102665">
 <ele>1098.3</ele>
 <time>2020-03-24T14:52:03Z</time>
</trkpt>
<trkpt lat="35.949788" lon="139.102783">
 <ele>1096.6</ele>
 <time>2020-03-24T14:52:03Z</time>
</trkpt>
<trkpt lat="35.949839" lon="139.102923">
 <ele>1093.4</ele>
 <time>2020-03-24T14:52:03Z</time>
</trkpt>
<trkpt lat="35.949788" lon="139.102933">
 <ele>1091.1</ele>
 <time>2020-03-24T14:52:03Z</time>
</trkpt>
<trkpt lat="35.949745" lon="139.102976">
 <ele>1089.5</ele>
 <time>2020-03-24T14:52:03Z</time>
</trkpt>
<trkpt lat="35.949754" lon="139.103073">
 <ele>1087.7</ele>
 <time>2020-03-24T14:52:03Z</time>
</trkpt>
<trkpt lat="35.949754" lon="139.103202">
 <ele>1085.4</ele>
 <time>2020-03-24T14:52:03Z</time>
</trkpt>
<trkpt lat="35.949719" lon="139.103309">
 <ele>1082.3</ele>
 <time>2020-03-24T14:52:04Z</time>
</trkpt>
<trkpt lat="35.949693" lon="139.103384">
 <ele>1080.8</ele>
 <time>2020-03-24T14:52:04Z</time>
</trkpt>
<trkpt lat="35.949625" lon="139.103363">
 <ele>1079.1</ele>
 <time>2020-03-24T14:52:04Z</time>
</trkpt>
<trkpt lat="35.949539" lon="139.103309">
 <ele>1078.4</ele>
 <time>2020-03-24T14:52:04Z</time>
</trkpt>
<trkpt lat="35.949479" lon="139.103330">
 <ele>1076.6</ele>
 <time>2020-03-24T14:52:04Z</time>
</trkpt>
<trkpt lat="35.949479" lon="139.103395">
 <ele>1074.8</ele>
 <time>2020-03-24T14:52:04Z</time>
</trkpt>
<trkpt lat="35.949479" lon="139.103502">
 <ele>1072.8</ele>
 <time>2020-03-24T14:52:04Z</time>
</trkpt>
<trkpt lat="35.949462" lon="139.103631">
 <ele>1070.6</ele>
 <time>2020-03-24T14:52:04Z</time>
</trkpt>
<trkpt lat="35.949445" lon="139.103738">
 <ele>1066.8</ele>
 <time>2020-03-24T14:52:04Z</time>
</trkpt>
<trkpt lat="35.949384" lon="139.103781">
 <ele>1065</ele>
 <time>2020-03-24T14:52:05Z</time>
</trkpt>
<trkpt lat="35.949299" lon="139.103813">
 <ele>1064.4</ele>
 <time>2020-03-24T14:52:05Z</time>
</trkpt>
<trkpt lat="35.949178" lon="139.103813">
 <ele>1062.8</ele>
 <time>2020-03-24T14:52:05Z</time>
</trkpt>
<trkpt lat="35.949093" lon="139.103781">
 <ele>1060</ele>
 <time>2020-03-24T14:52:05Z</time>
</trkpt>
<trkpt lat="35.949041" lon="139.103824">
 <ele>1057.8</ele>
 <time>2020-03-24T14:52:05Z</time>
</trkpt>
<trkpt lat="35.949041" lon="139.103931">
 <ele>1055.2</ele>
 <time>2020-03-24T14:52:05Z</time>
</trkpt>
<trkpt lat="35.948981" lon="139.104006">
 <ele>1049.5</ele>
 <time>2020-03-24T14:52:05Z</time>
</trkpt>
<trkpt lat="35.948981" lon="139.104071">
 <ele>1048.5</ele>
 <time>2020-03-24T14:52:05Z</time>
</trkpt>
<trkpt lat="35.948998" lon="139.104146">
 <ele>1046.4</ele>
 <time>2020-03-24T14:52:05Z</time>
</trkpt>
<trkpt lat="35.949015" lon="139.104253">
 <ele>1043.7</ele>
 <time>2020-03-24T14:52:05Z</time>
</trkpt>
<trkpt lat="35.948955" lon="139.104285">
 <ele>1042.2</ele>
 <time>2020-03-24T14:52:06Z</time>
</trkpt>
<trkpt lat="35.948852" lon="139.104285">
 <ele>1038.6</ele>
 <time>2020-03-24T14:52:06Z</time>
</trkpt>
<trkpt lat="35.948724" lon="139.104242">
 <ele>1033.8</ele>
 <time>2020-03-24T14:52:06Z</time>
</trkpt>
<trkpt lat="35.948663" lon="139.104146">
 <ele>1034.1</ele>
 <time>2020-03-24T14:52:06Z</time>
</trkpt>
<trkpt lat="35.948612" lon="139.104189">
 <ele>1030.3</ele>
 <time>2020-03-24T14:52:06Z</time>
</trkpt>
<trkpt lat="35.948603" lon="139.104264">
 <ele>1028.4</ele>
 <time>2020-03-24T14:52:06Z</time>
</trkpt>
<trkpt lat="35.948629" lon="139.104360">
 <ele>1028</ele>
 <time>2020-03-24T14:52:06Z</time>
</trkpt>
<trkpt lat="35.948612" lon="139.104511">
 <ele>1023.9</ele>
 <time>2020-03-24T14:52:06Z</time>
</trkpt>
<trkpt lat="35.948543" lon="139.104618">
 <ele>1021.7</ele>
 <time>2020-03-24T14:52:06Z</time>
</trkpt>
<trkpt lat="35.948449" lon="139.104650">
 <ele>1020.1</ele>
 <time>2020-03-24T14:52:06Z</time>
</trkpt>
<trkpt lat="35.948354" lon="139.104682">
 <ele>1018.2</ele>
 <time>2020-03-24T14:52:07Z</time>
</trkpt>
<trkpt lat="35.948277" lon="139.104736">
 <ele>1015.9</ele>
 <time>2020-03-24T14:52:07Z</time>
</trkpt>
<trkpt lat="35.948200" lon="139.104832">
 <ele>1012.6</ele>
 <time>2020-03-24T14:52:07Z</time>
</trkpt>
<trkpt lat="35.948131" lon="139.104961">
 <ele>1008.8</ele>
 <time>2020-03-24T14:52:07Z</time>
</trkpt>
<trkpt lat="35.948054" lon="139.105047">
 <ele>1006.1</ele>
 <time>2020-03-24T14:52:07Z</time>
</trkpt>
<trkpt lat="35.947943" lon="139.105133">
 <ele>1002.8</ele>
 <time>2020-03-24T14:52:07Z</time>
</trkpt>
<trkpt lat="35.947848" lon="139.105229">
 <ele>1000</ele>
 <time>2020-03-24T14:52:07Z</time>
</trkpt>
<trkpt lat="35.947719" lon="139.105326">
 <ele>997.6</ele>
 <time>2020-03-24T14:52:07Z</time>
</trkpt>
<trkpt lat="35.947651" lon="139.105412">
 <ele>996</ele>
 <time>2020-03-24T14:52:07Z</time>
</trkpt>
<trkpt lat="35.947565" lon="139.105487">
 <ele>993.7</ele>
 <time>2020-03-24T14:52:08Z</time>
</trkpt>
<trkpt lat="35.947513" lon="139.105433">
 <ele>993.2</ele>
 <time>2020-03-24T14:52:08Z</time>
</trkpt>
<trkpt lat="35.947419" lon="139.105422">
 <ele>988.3</ele>
 <time>2020-03-24T14:52:08Z</time>
</trkpt>
<trkpt lat="35.947393" lon="139.105530">
 <ele>986.8</ele>
 <time>2020-03-24T14:52:08Z</time>
</trkpt>
<trkpt lat="35.947333" lon="139.105583">
 <ele>983.7</ele>
 <time>2020-03-24T14:52:08Z</time>
</trkpt>
<trkpt lat="35.947256" lon="139.105626">
 <ele>981.4</ele>
 <time>2020-03-24T14:52:08Z</time>
</trkpt>
<trkpt lat="35.947213" lon="139.105562">
 <ele>980.9</ele>
 <time>2020-03-24T14:52:08Z</time>
</trkpt>
<trkpt lat="35.947179" lon="139.105508">
 <ele>979.5</ele>
 <time>2020-03-24T14:52:08Z</time>
</trkpt>
<trkpt lat="35.947213" lon="139.105412">
 <ele>980.1</ele>
 <time>2020-03-24T14:52:08Z</time>
</trkpt>
<trkpt lat="35.947222" lon="139.105358">
 <ele>978.5</ele>
 <time>2020-03-24T14:52:08Z</time>
</trkpt>
<trkpt lat="35.947247" lon="139.105262">
 <ele>977.4</ele>
 <time>2020-03-24T14:52:09Z</time>
</trkpt>
<trkpt lat="35.947316" lon="139.105090">
 <ele>972.3</ele>
 <time>2020-03-24T14:52:09Z</time>
</trkpt>
<trkpt lat="35.947316" lon="139.104940">
 <ele>966</ele>
 <time>2020-03-24T14:52:09Z</time>
</trkpt>
<trkpt lat="35.947316" lon="139.104865">
 <ele>963.4</ele>
 <time>2020-03-24T14:52:09Z</time>
</trkpt>
<trkpt lat="35.947299" lon="139.104714">
 <ele>959.1</ele>
 <time>2020-03-24T14:52:09Z</time>
</trkpt>
<trkpt lat="35.947264" lon="139.104650">
 <ele>956.9</ele>
 <time>2020-03-24T14:52:09Z</time>
</trkpt>
<trkpt lat="35.947264" lon="139.104521">
 <ele>956.2</ele>
 <time>2020-03-24T14:52:09Z</time>
</trkpt>
<trkpt lat="35.947213" lon="139.104382">
 <ele>953.1</ele>
 <time>2020-03-24T14:52:09Z</time>
</trkpt>
<trkpt lat="35.947136" lon="139.104274">
 <ele>947.5</ele>
 <time>2020-03-24T14:52:09Z</time>
</trkpt>
<trkpt lat="35.947153" lon="139.104189">
 <ele>945.6</ele>
 <time>2020-03-24T14:52:10Z</time>
</trkpt>
<trkpt lat="35.947170" lon="139.104081">
 <ele>944.8</ele>
 <time>2020-03-24T14:52:10Z</time>
</trkpt>
<trkpt lat="35.947179" lon="139.104028">
 <ele>942.9</ele>
 <time>2020-03-24T14:52:10Z</time>
</trkpt>
<trkpt lat="35.947161" lon="139.103942">
 <ele>941.1</ele>
 <time>2020-03-24T14:52:10Z</time>
</trkpt>
<trkpt lat="35.947093" lon="139.103856">
 <ele>938.2</ele>
 <time>2020-03-24T14:52:10Z</time>
</trkpt>
<trkpt lat="35.946895" lon="139.103760">
 <ele>930.7</ele>
 <time>2020-03-24T14:52:10Z</time>
</trkpt>
<trkpt lat="35.946810" lon="139.103792">
 <ele>926.4</ele>
 <time>2020-03-24T14:52:10Z</time>
</trkpt>
<trkpt lat="35.946732" lon="139.103845">
 <ele>923.2</ele>
 <time>2020-03-24T14:52:10Z</time>
</trkpt>
<trkpt lat="35.946638" lon="139.103920">
 <ele>917.5</ele>
 <time>2020-03-24T14:52:10Z</time>
</trkpt>
<trkpt lat="35.946535" lon="139.103953">
 <ele>913.5</ele>
 <time>2020-03-24T14:52:10Z</time>
</trkpt>
<trkpt lat="35.946458" lon="139.103974">
 <ele>911.3</ele>
 <time>2020-03-24T14:52:11Z</time>
</trkpt>
<trkpt lat="35.946363" lon="139.103931">
 <ele>909</ele>
 <time>2020-03-24T14:52:11Z</time>
</trkpt>
<trkpt lat="35.946303" lon="139.103856">
 <ele>906.7</ele>
 <time>2020-03-24T14:52:11Z</time>
</trkpt>
<trkpt lat="35.946234" lon="139.103792">
 <ele>903.2</ele>
 <time>2020-03-24T14:52:11Z</time>
</trkpt>
<trkpt lat="35.946200" lon="139.103717">
 <ele>901.4</ele>
 <time>2020-03-24T14:52:11Z</time>
</trkpt>
<trkpt lat="35.946174" lon="139.103631">
 <ele>899.4</ele>
 <time>2020-03-24T14:52:11Z</time>
</trkpt>
<trkpt lat="35.946131" lon="139.103545">
 <ele>896.6</ele>
 <time>2020-03-24T14:52:11Z</time>
</trkpt>
<trkpt lat="35.946063" lon="139.103545">
 <ele>893.5</ele>
 <time>2020-03-24T14:52:11Z</time>
</trkpt>
<trkpt lat="35.945968" lon="139.103502">
 <ele>889</ele>
 <time>2020-03-24T14:52:11Z</time>
</trkpt>
<trkpt lat="35.945917" lon="139.103459">
 <ele>887.7</ele>
 <time>2020-03-24T14:52:12Z</time>
</trkpt>
<trkpt lat="35.945848" lon="139.103416">
 <ele>885.7</ele>
 <time>2020-03-24T14:52:12Z</time>
</trkpt>
<trkpt lat="35.945737" lon="139.103405">
 <ele>882.8</ele>
 <time>2020-03-24T14:52:12Z</time>
</trkpt>
<trkpt lat="35.945668" lon="139.103459">
 <ele>880.9</ele>
 <time>2020-03-24T14:52:12Z</time>
</trkpt>
<trkpt lat="35.945582" lon="139.103481">
 <ele>877.5</ele>
 <time>2020-03-24T14:52:12Z</time>
</trkpt>
<trkpt lat="35.945496" lon="139.103534">
 <ele>874.8</ele>
 <time>2020-03-24T14:52:12Z</time>
</trkpt>
<trkpt lat="35.945445" lon="139.103534">
 <ele>872.8</ele>
 <time>2020-03-24T14:52:12Z</time>
</trkpt>
<trkpt lat="35.945393" lon="139.103588">
 <ele>871.4</ele>
 <time>2020-03-24T14:52:12Z</time>
</trkpt>
<trkpt lat="35.945368" lon="139.103684">
 <ele>867.6</ele>
 <time>2020-03-24T14:52:12Z</time>
</trkpt>
<trkpt lat="35.945342" lon="139.103792">
 <ele>861.7</ele>
 <time>2020-03-24T14:52:12Z</time>
</trkpt>
<trkpt lat="35.945273" lon="139.103792">
 <ele>859.3</ele>
 <time>2020-03-24T14:52:13Z</time>
</trkpt>
<trkpt lat="35.945196" lon="139.103781">
 <ele>856.9</ele>
 <time>2020-03-24T14:52:13Z</time>
</trkpt>
<trkpt lat="35.945110" lon="139.103749">
 <ele>854</ele>
 <time>2020-03-24T14:52:13Z</time>
</trkpt>
<trkpt lat="35.945033" lon="139.103727">
 <ele>852.4</ele>
 <time>2020-03-24T14:52:13Z</time>
</trkpt>
<trkpt lat="35.944947" lon="139.103684">
 <ele>850.1</ele>
 <time>2020-03-24T14:52:13Z</time>
</trkpt>
<trkpt lat="35.944870" lon="139.103631">
 <ele>847.6</ele>
 <time>2020-03-24T14:52:13Z</time>
</trkpt>
<trkpt lat="35.944827" lon="139.103566">
 <ele>844.7</ele>
 <time>2020-03-24T14:52:13Z</time>
</trkpt>
<trkpt lat="35.944775" lon="139.103448">
 <ele>843.8</ele>
 <time>2020-03-24T14:52:13Z</time>
</trkpt>
<trkpt lat="35.944715" lon="139.103298">
 <ele>840.8</ele>
 <time>2020-03-24T14:52:13Z</time>
</trkpt>
<trkpt lat="35.944681" lon="139.103223">
 <ele>839</ele>
 <time>2020-03-24T14:52:13Z</time>
</trkpt>
<trkpt lat="35.944638" lon="139.103180">
 <ele>837.5</ele>
 <time>2020-03-24T14:52:14Z</time>
</trkpt>
<trkpt lat="35.944587" lon="139.103245">
 <ele>833.7</ele>
 <time>2020-03-24T14:52:14Z</time>
</trkpt>
<trkpt lat="35.944544" lon="139.103309">
 <ele>830.2</ele>
 <time>2020-03-24T14:52:14Z</time>
</trkpt>
<trkpt lat="35.944492" lon="139.103341">
 <ele>828.6</ele>
 <time>2020-03-24T14:52:14Z</time>
</trkpt>
<trkpt lat="35.944432" lon="139.103341">
 <ele>825.5</ele>
 <time>2020-03-24T14:52:14Z</time>
</trkpt>
<trkpt lat="35.944406" lon="139.103395">
 <ele>822.6</ele>
 <time>2020-03-24T14:52:14Z</time>
</trkpt>
<trkpt lat="35.944381" lon="139.103481">
 <ele>821</ele>
 <time>2020-03-24T14:52:14Z</time>
</trkpt>
<trkpt lat="35.944338" lon="139.103523">
 <ele>819.9</ele>
 <time>2020-03-24T14:52:14Z</time>
</trkpt>
<trkpt lat="35.944278" lon="139.103577">
 <ele>819</ele>
 <time>2020-03-24T14:52:14Z</time>
</trkpt>
<trkpt lat="35.944192" lon="139.103641">
 <ele>815.7</ele>
 <time>2020-03-24T14:52:15Z</time>
</trkpt>
<trkpt lat="35.944140" lon="139.103684">
 <ele>814.7</ele>
 <time>2020-03-24T14:52:15Z</time>
</trkpt>
<trkpt lat="35.944123" lon="139.103760">
 <ele>812.1</ele>
 <time>2020-03-24T14:52:15Z</time>
</trkpt>
<trkpt lat="35.944123" lon="139.103878">
 <ele>806.9</ele>
 <time>2020-03-24T14:52:15Z</time>
</trkpt>
<trkpt lat="35.944097" lon="139.103899">
 <ele>805.8</ele>
 <time>2020-03-24T14:52:15Z</time>
</trkpt>
<trkpt lat="35.944003" lon="139.103878">
 <ele>803</ele>
 <time>2020-03-24T14:52:15Z</time>
</trkpt>
<trkpt lat="35.943960" lon="139.103835">
 <ele>801</ele>
 <time>2020-03-24T14:52:15Z</time>
</trkpt>
<trkpt lat="35.943917" lon="139.103749">
 <ele>799.2</ele>
 <time>2020-03-24T14:52:15Z</time>
</trkpt>
<trkpt lat="35.943883" lon="139.103684">
 <ele>797.7</ele>
 <time>2020-03-24T14:52:15Z</time>
</trkpt>
<trkpt lat="35.943823" lon="139.103599">
 <ele>793.7</ele>
 <time>2020-03-24T14:52:16Z</time>
</trkpt>
<trkpt lat="35.943771" lon="139.103663">
 <ele>791.7</ele>
 <time>2020-03-24T14:52:16Z</time>
</trkpt>
<trkpt lat="35.943737" lon="139.103727">
 <ele>789</ele>
 <time>2020-03-24T14:52:16Z</time>
</trkpt>
<trkpt lat="35.943711" lon="139.103856">
 <ele>787</ele>
 <time>2020-03-24T14:52:16Z</time>
</trkpt>
<trkpt lat="35.943677" lon="139.104049">
 <ele>785</ele>
 <time>2020-03-24T14:52:16Z</time>
</trkpt>
<trkpt lat="35.943728" lon="139.104156">
 <ele>784.3</ele>
 <time>2020-03-24T14:52:16Z</time>
</trkpt>
<trkpt lat="35.943814" lon="139.104232">
 <ele>780.3</ele>
 <time>2020-03-24T14:52:16Z</time>
</trkpt>
<trkpt lat="35.943908" lon="139.104317">
 <ele>779.6</ele>
 <time>2020-03-24T14:52:16Z</time>
</trkpt>
<trkpt lat="35.943969" lon="139.104457">
 <ele>777.4</ele>
 <time>2020-03-24T14:52:16Z</time>
</trkpt>
<trkpt lat="35.943986" lon="139.104543">
 <ele>773.8</ele>
 <time>2020-03-24T14:52:17Z</time>
</trkpt>
<trkpt lat="35.943943" lon="139.104607">
 <ele>769.4</ele>
 <time>2020-03-24T14:52:17Z</time>
</trkpt>
<trkpt lat="35.943943" lon="139.104682">
 <ele>764.4</ele>
 <time>2020-03-24T14:52:17Z</time>
</trkpt>
<trkpt lat="35.943986" lon="139.104757">
 <ele>761.3</ele>
 <time>2020-03-24T14:52:17Z</time>
</trkpt>
<trkpt lat="35.944089" lon="139.104811">
 <ele>752.3</ele>
 <time>2020-03-24T14:52:17Z</time>
</trkpt>
<trkpt lat="35.944209" lon="139.104811">
 <ele>755.3</ele>
 <time>2020-03-24T14:52:17Z</time>
</trkpt>
<trkpt lat="35.944243" lon="139.104886">
 <ele>757.4</ele>
 <time>2020-03-24T14:52:17Z</time>
</trkpt>
<trkpt lat="35.944217" lon="139.105004">
 <ele>758.8</ele>
 <time>2020-03-24T14:52:17Z</time>
</trkpt>
<trkpt lat="35.944157" lon="139.105058">
 <ele>754.2</ele>
 <time>2020-03-24T14:52:17Z</time>
</trkpt>
<trkpt lat="35.944106" lon="139.105154">
 <ele>755</ele>
 <time>2020-03-24T14:52:17Z</time>
</trkpt>
<trkpt lat="35.944037" lon="139.105219">
 <ele>751.1</ele>
 <time>2020-03-24T14:52:18Z</time>
</trkpt>
<trkpt lat="35.943943" lon="139.105315">
 <ele>746.2</ele>
 <time>2020-03-24T14:52:18Z</time>
</trkpt>
<trkpt lat="35.943883" lon="139.105390">
 <ele>742.8</ele>
 <time>2020-03-24T14:52:18Z</time>
</trkpt>
<trkpt lat="35.943840" lon="139.105476">
 <ele>740.3</ele>
 <time>2020-03-24T14:52:18Z</time>
</trkpt>
<trkpt lat="35.943788" lon="139.105508">
 <ele>734.7</ele>
 <time>2020-03-24T14:52:18Z</time>
</trkpt>
<trkpt lat="35.943702" lon="139.105487">
 <ele>732</ele>
 <time>2020-03-24T14:52:18Z</time>
</trkpt>
<trkpt lat="35.943634" lon="139.105422">
 <ele>726.2</ele>
 <time>2020-03-24T14:52:18Z</time>
</trkpt>
<trkpt lat="35.943505" lon="139.105337">
 <ele>720.7</ele>
 <time>2020-03-24T14:52:18Z</time>
</trkpt>
<trkpt lat="35.943411" lon="139.105347">
 <ele>720</ele>
 <time>2020-03-24T14:52:18Z</time>
</trkpt>
<trkpt lat="35.943333" lon="139.105358">
 <ele>720.3</ele>
 <time>2020-03-24T14:52:19Z</time>
</trkpt>
<trkpt lat="35.943256" lon="139.105380">
 <ele>717.2</ele>
 <time>2020-03-24T14:52:19Z</time>
</trkpt>
<trkpt lat="35.943179" lon="139.105380">
 <ele>716.9</ele>
 <time>2020-03-24T14:52:19Z</time>
</trkpt>
<trkpt lat="35.943102" lon="139.105390">
 <ele>715.9</ele>
 <time>2020-03-24T14:52:19Z</time>
</trkpt>
<trkpt lat="35.942990" lon="139.105347">
 <ele>711.3</ele>
 <time>2020-03-24T14:52:19Z</time>
</trkpt>
<trkpt lat="35.942904" lon="139.105262">
 <ele>710.2</ele>
 <time>2020-03-24T14:52:19Z</time>
</trkpt>
<trkpt lat="35.942836" lon="139.105283">
 <ele>705.3</ele>
 <time>2020-03-24T14:52:19Z</time>
</trkpt>
<trkpt lat="35.942878" lon="139.105498">
 <ele>699.8</ele>
 <time>2020-03-24T14:52:19Z</time>
</trkpt>
<trkpt lat="35.942913" lon="139.105637">
 <ele>698.3</ele>
 <time>2020-03-24T14:52:19Z</time>
</trkpt>
<trkpt lat="35.942964" lon="139.105895">
 <ele>692.8</ele>
 <time>2020-03-24T14:52:19Z</time>
</trkpt>
<trkpt lat="35.942999" lon="139.106163">
 <ele>687</ele>
 <time>2020-03-24T14:52:20Z</time>
</trkpt>
<trkpt lat="35.943059" lon="139.106420">
 <ele>681.3</ele>
 <time>2020-03-24T14:52:20Z</time>
</trkpt>
<trkpt lat="35.943102" lon="139.106646">
 <ele>676.9</ele>
 <time>2020-03-24T14:52:20Z</time>
</trkpt>
<trkpt lat="35.943136" lon="139.106828">
 <ele>671.4</ele>
 <time>2020-03-24T14:52:20Z</time>
</trkpt>
<trkpt lat="35.943170" lon="139.107010">
 <ele>668.9</ele>
 <time>2020-03-24T14:52:20Z</time>
</trkpt>
<trkpt lat="35.943153" lon="139.107107">
 <ele>667.3</ele>
 <time>2020-03-24T14:52:20Z</time>
</trkpt>
<trkpt lat="35.943153" lon="139.107225">
 <ele>664.5</ele>
 <time>2020-03-24T14:52:20Z</time>
</trkpt>
<trkpt lat="35.943136" lon="139.107429">
 <ele>659.3</ele>
 <time>2020-03-24T14:52:20Z</time>
</trkpt>
<trkpt lat="35.943093" lon="139.107579">
 <ele>654.9</ele>
 <time>2020-03-24T14:52:20Z</time>
</trkpt>
<trkpt lat="35.943084" lon="139.107751">
 <ele>651.1</ele>
 <time>2020-03-24T14:52:21Z</time>
</trkpt>
<trkpt lat="35.943016" lon="139.107997">
 <ele>647.5</ele>
 <time>2020-03-24T14:52:21Z</time>
</trkpt>
<trkpt lat="35.942956" lon="139.108180">
 <ele>643.2</ele>
 <time>2020-03-24T14:52:21Z</time>
</trkpt>
<trkpt lat="35.942887" lon="139.108351">
 <ele>639.8</ele>
 <time>2020-03-24T14:52:21Z</time>
</trkpt>
<trkpt lat="35.942801" lon="139.108502">
 <ele>637.4</ele>
 <time>2020-03-24T14:52:21Z</time>
</trkpt>
<trkpt lat="35.942707" lon="139.108727">
 <ele>629.6</ele>
 <time>2020-03-24T14:52:21Z</time>
</trkpt>
<trkpt lat="35.942595" lon="139.108931">
 <ele>622.9</ele>
 <time>2020-03-24T14:52:21Z</time>
</trkpt>
<trkpt lat="35.942432" lon="139.109199">
 <ele>615.4</ele>
 <time>2020-03-24T14:52:21Z</time>
</trkpt>
<trkpt lat="35.942286" lon="139.109478">
 <ele>610</ele>
 <time>2020-03-24T14:52:21Z</time>
</trkpt>
<trkpt lat="35.942192" lon="139.109650">
 <ele>606.8</ele>
 <time>2020-03-24T14:52:21Z</time>
</trkpt>
<trkpt lat="35.942089" lon="139.109929">
 <ele>606.5</ele>
 <time>2020-03-24T14:52:22Z</time>
</trkpt>
<trkpt lat="35.942063" lon="139.110014">
 <ele>606</ele>
 <time>2020-03-24T14:52:22Z</time>
</trkpt>
<trkpt lat="35.942063" lon="139.110100">
 <ele>606.3</ele>
 <time>2020-03-24T14:52:22Z</time>
</trkpt>
<trkpt lat="35.941994" lon="139.110165">
 <ele>601.8</ele>
 <time>2020-03-24T14:52:22Z</time>
</trkpt>
<trkpt lat="35.941969" lon="139.110186">
 <ele>599.3</ele>
 <time>2020-03-24T14:52:22Z</time>
</trkpt>
<trkpt lat="35.941900" lon="139.110208">
 <ele>596.3</ele>
 <time>2020-03-24T14:52:22Z</time>
</trkpt>
<trkpt lat="35.941857" lon="139.110250">
 <ele>596.9</ele>
 <time>2020-03-24T14:52:22Z</time>
</trkpt>
<trkpt lat="35.941857" lon="139.110358">
 <ele>595.4</ele>
 <time>2020-03-24T14:52:22Z</time>
</trkpt>
<trkpt lat="35.941866" lon="139.110411">
 <ele>594.6</ele>
 <time>2020-03-24T14:52:22Z</time>
</trkpt>
<trkpt lat="35.941874" lon="139.110519">
 <ele>593</ele>
 <time>2020-03-24T14:52:23Z</time>
</trkpt>
<trkpt lat="35.941874" lon="139.110626">
 <ele>592.5</ele>
 <time>2020-03-24T14:52:23Z</time>
</trkpt>
<trkpt lat="35.941849" lon="139.110690">
 <ele>592.2</ele>
 <time>2020-03-24T14:52:23Z</time>
</trkpt>
<trkpt lat="35.941849" lon="139.110787">
 <ele>592.2</ele>
 <time>2020-03-24T14:52:23Z</time>
</trkpt>
<trkpt lat="35.941797" lon="139.110851">
 <ele>589.9</ele>
 <time>2020-03-24T14:52:23Z</time>
</trkpt>
<trkpt lat="35.941737" lon="139.110959">
 <ele>586.8</ele>
 <time>2020-03-24T14:52:23Z</time>
</trkpt>
<trkpt lat="35.941703" lon="139.111034">
 <ele>583.8</ele>
 <time>2020-03-24T14:52:23Z</time>
</trkpt>
<trkpt lat="35.941668" lon="139.111141">
 <ele>581.2</ele>
 <time>2020-03-24T14:52:23Z</time>
</trkpt>
<trkpt lat="35.941668" lon="139.111216">
 <ele>579.2</ele>
 <time>2020-03-24T14:52:23Z</time>
</trkpt>
<trkpt lat="35.941668" lon="139.111270">
 <ele>579</ele>
 <time>2020-03-24T14:52:23Z</time>
</trkpt>
<trkpt lat="35.941703" lon="139.111388">
 <ele>573</ele>
 <time>2020-03-24T14:52:24Z</time>
</trkpt>
<trkpt lat="35.941728" lon="139.111516">
 <ele>572.3</ele>
 <time>2020-03-24T14:52:24Z</time>
</trkpt>
<trkpt lat="35.941763" lon="139.111645">
 <ele>571.5</ele>
 <time>2020-03-24T14:52:24Z</time>
</trkpt>
<trkpt lat="35.941806" lon="139.111838">
 <ele>571.5</ele>
 <time>2020-03-24T14:52:24Z</time>
</trkpt>
<trkpt lat="35.941831" lon="139.112010">
 <ele>570.5</ele>
 <time>2020-03-24T14:52:24Z</time>
</trkpt>
<trkpt lat="35.941823" lon="139.112139">
 <ele>569.8</ele>
 <time>2020-03-24T14:52:24Z</time>
</trkpt>
<trkpt lat="35.941806" lon="139.112235">
 <ele>566.9</ele>
 <time>2020-03-24T14:52:24Z</time>
</trkpt>
<trkpt lat="35.941806" lon="139.112385">
 <ele>563.8</ele>
 <time>2020-03-24T14:52:24Z</time>
</trkpt>
<trkpt lat="35.941788" lon="139.112504">
 <ele>562.6</ele>
 <time>2020-03-24T14:52:24Z</time>
</trkpt>
<trkpt lat="35.941763" lon="139.112654">
 <ele>561.2</ele>
 <time>2020-03-24T14:52:24Z</time>
</trkpt>
<trkpt lat="35.941763" lon="139.112879">
 <ele>556.8</ele>
 <time>2020-03-24T14:52:25Z</time>
</trkpt>
<trkpt lat="35.941780" lon="139.112954">
 <ele>556.8</ele>
 <time>2020-03-24T14:52:25Z</time>
</trkpt>
<trkpt lat="35.941788" lon="139.113051">
 <ele>554.1</ele>
 <time>2020-03-24T14:52:25Z</time>
</trkpt>
<trkpt lat="35.941797" lon="139.113190">
 <ele>550.5</ele>
 <time>2020-03-24T14:52:25Z</time>
</trkpt>
<trkpt lat="35.941840" lon="139.113340">
 <ele>548.8</ele>
 <time>2020-03-24T14:52:25Z</time>
</trkpt>
<trkpt lat="35.941840" lon="139.113555">
 <ele>542.7</ele>
 <time>2020-03-24T14:52:25Z</time>
</trkpt>
<trkpt lat="35.941831" lon="139.113694">
 <ele>539.2</ele>
 <time>2020-03-24T14:52:25Z</time>
</trkpt>
<trkpt lat="35.941806" lon="139.113834">
 <ele>537.5</ele>
 <time>2020-03-24T14:52:25Z</time>
</trkpt>
<trkpt lat="35.941806" lon="139.114070">
 <ele>535.6</ele>
 <time>2020-03-24T14:52:25Z</time>
</trkpt>
<trkpt lat="35.941797" lon="139.114199">
 <ele>533.1</ele>
 <time>2020-03-24T14:52:26Z</time>
</trkpt>
<trkpt lat="35.941797" lon="139.114381">
 <ele>530.5</ele>
 <time>2020-03-24T14:52:26Z</time>
</trkpt>
<trkpt lat="35.941797" lon="139.114478">
 <ele>531.6</ele>
 <time>2020-03-24T14:52:26Z</time>
</trkpt>
<trkpt lat="35.941814" lon="139.114553">
 <ele>529.5</ele>
 <time>2020-03-24T14:52:26Z</time>
</trkpt>
<trkpt lat="35.941814" lon="139.114692">
 <ele>529.6</ele>
 <time>2020-03-24T14:52:26Z</time>
</trkpt>
<trkpt lat="35.941720" lon="139.114778">
 <ele>524.5</ele>
 <time>2020-03-24T14:52:26Z</time>
</trkpt>
<trkpt lat="35.941634" lon="139.114746">
 <ele>523.3</ele>
 <time>2020-03-24T14:52:26Z</time>
</trkpt>
<trkpt lat="35.941574" lon="139.114692">
 <ele>521.7</ele>
 <time>2020-03-24T14:52:26Z</time>
</trkpt>
<trkpt lat="35.941402" lon="139.114724">
 <ele>529.4</ele>
 <time>2020-03-24T14:52:26Z</time>
</trkpt>
<trkpt lat="35.941402" lon="139.114917">
 <ele>529.3</ele>
 <time>2020-03-24T14:52:26Z</time>
</trkpt>
<trkpt lat="35.941462" lon="139.115121">
 <ele>525.7</ele>
 <time>2020-03-24T14:52:27Z</time>
</trkpt>
<trkpt lat="35.941754" lon="139.116162">
 <ele>516.9</ele>
 <time>2020-03-24T14:52:27Z</time>
</trkpt>
</trkseg>
</trk>
</gpx>

